| time (UTC) | temp C | wind direction | speed KPH | gust KPH | rain 1hr cm | rain 24hr cm | rain mn cm | humidity % | barometer mb |
| 20260504151007 | 18 | 360 | 19.3 | 41.8 | 0.00 | 0.00 | 0.00 | 31 | 1012.6 |
| 20260504150505 | 18 | 360 | 16.1 | 46.7 | 0.00 | 0.00 | 0.00 | 32 | 1012.6 |
| 20260504141056 | 16 | 360 | 16.1 | 38.6 | 0.00 | 0.00 | 0.00 | 35 | 1012.9 |
| 20260504140555 | 16 | 360 | 14.5 | 38.6 | 0.00 | 0.00 | 0.00 | 35 | 1013.0 |
| 20260504130542 | 15 | 212 | 8.0 | 24.1 | 0.00 | 0.00 | 0.00 | 41 | 1013.3 |
| 20260504110507 | 3 | 65 | 1.6 | 9.7 | 0.00 | 0.00 | 0.00 | 77 | 1013.9 |
| 20260504100555 | 2 | 360 | 0.0 | 4.8 | 0.00 | 0.00 | 0.00 | 77 | 1013.5 |
| 20260504081547 | 3 | 249 | 0.0 | 3.2 | 0.00 | 0.00 | 0.00 | 76 | 1013.2 |
| 20260504081047 | 3 | 248 | 0.0 | 3.2 | 0.00 | 0.00 | 0.00 | 75 | 1013.2 |
| 20260504080546 | 3 | 248 | 0.0 | 4.8 | 0.00 | 0.00 | 0.00 | 75 | 1013.2 |
| 20260504050534 | 2 | 246 | 0.0 | 4.8 | 0.00 | 0.00 | 0.00 | 71 | 1013.4 |
| 20260504045530 | 2 | 246 | 3.2 | 4.8 | 0.00 | 0.00 | 0.00 | 71 | 1013.5 |
| 20260504045029 | 2 | 246 | 1.6 | 3.2 | 0.00 | 0.00 | 0.00 | 70 | 1013.6 |
| 20260504044528 | 3 | 246 | 0.0 | 0.0 | 0.00 | 0.00 | 0.00 | 70 | 1013.6 |
| 20260504044027 | 3 | 246 | 0.0 | 0.0 | 0.00 | 0.00 | 0.00 | 69 | 1013.7 |
| 20260504043527 | 3 | 246 | 0.0 | 0.0 | 0.00 | 0.00 | 0.00 | 69 | 1013.6 |
| 20260504043029 | 3 | 246 | 0.0 | 0.0 | 0.00 | 0.00 | 0.00 | 68 | 1013.6 |
| 20260504042525 | 3 | 246 | 0.0 | 0.0 | 0.00 | 0.00 | 0.00 | 68 | 1013.6 |
| 20260504042024 | 3 | 246 | 0.0 | 3.2 | 0.00 | 0.00 | 0.00 | 67 | 1013.6 |
| 20260504041532 | 3 | 246 | 0.0 | 3.2 | 0.00 | 0.00 | 0.00 | 67 | 1013.7 |
| 20260504041023 | 3 | 246 | 0.0 | 1.6 | 0.00 | 0.00 | 0.00 | 66 | 1013.6 |
| 20260504040525 | 3 | 246 | 0.0 | 1.6 | 0.00 | 0.00 | 0.00 | 66 | 1013.4 |
| 20260504040022 | 3 | 246 | 0.0 | 3.2 | 0.00 | 0.00 | 0.00 | 66 | 1013.5 |
| 20260504035522 | 3 | 246 | 1.6 | 3.2 | 0.00 | 0.00 | 0.00 | 65 | 1013.5 |
| 20260504035022 | 4 | 246 | 0.0 | 3.2 | 0.00 | 0.00 | 0.00 | 64 | 1013.5 |
| 20260504034521 | 4 | 246 | 0.0 | 0.0 | 0.00 | 0.00 | 0.00 | 64 | 1013.5 |
| 20260504034025 | 4 | 246 | 0.0 | 0.0 | 0.00 | 0.00 | 0.00 | 63 | 1013.4 |
| 20260504033520 | 4 | 246 | 0.0 | 3.2 | 0.00 | 0.00 | 0.00 | 63 | 1013.5 |
| 20260504033021 | 5 | 246 | 0.0 | 4.8 | 0.00 | 0.00 | 0.00 | 62 | 1013.3 |
| 20260504032522 | 5 | 247 | 1.6 | 4.8 | 0.00 | 0.00 | 0.00 | 62 | 1013.3 |
| 20260504032021 | 5 | 248 | 0.0 | 3.2 | 0.00 | 0.00 | 0.00 | 61 | 1013.3 |
| 20260504031521 | 5 | 360 | 1.6 | 3.2 | 0.00 | 0.00 | 0.00 | 60 | 1013.3 |
| 20260504031020 | 5 | 360 | 0.0 | 3.2 | 0.00 | 0.00 | 0.00 | 60 | 1013.2 |
| 20260504030520 | 5 | 360 | 1.6 | 3.2 | 0.00 | 0.00 | 0.00 | 59 | 1013.1 |
| 20260504030020 | 5 | 360 | 1.6 | 4.8 | 0.00 | 0.00 | 0.00 | 59 | 1013.1 |
| 20260504025520 | 5 | 360 | 1.6 | 6.4 | 0.00 | 0.00 | 0.00 | 58 | 1013.2 |
| 20260504025020 | 5 | 360 | 3.2 | 6.4 | 0.00 | 0.00 | 0.00 | 58 | 1013.2 |
| 20260504024521 | 5 | 360 | 0.0 | 1.6 | 0.00 | 0.00 | 0.00 | 57 | 1013.3 |
| 20260504024018 | 5 | 360 | 0.0 | 1.6 | 0.00 | 0.00 | 0.00 | 56 | 1013.3 |
| 20260504023519 | 6 | 360 | 0.0 | 1.6 | 0.00 | 0.00 | 0.00 | 56 | 1013.4 |
| 20260504023019 | 6 | 360 | 0.0 | 3.2 | 0.00 | 0.00 | 0.00 | 55 | 1013.3 |
| 20260504022521 | 6 | 360 | 0.0 | 3.2 | 0.00 | 0.00 | 0.00 | 55 | 1013.2 |
| 20260504022019 | 6 | 360 | 0.0 | 4.8 | 0.00 | 0.00 | 0.00 | 55 | 1013.2 |
| 20260504021518 | 6 | 360 | 1.6 | 4.8 | 0.00 | 0.00 | 0.00 | 55 | 1013.2 |
| 20260504021018 | 6 | 360 | 1.6 | 3.2 | 0.00 | 0.00 | 0.00 | 54 | 1013.1 |
| 20260504020518 | 6 | 360 | 1.6 | 3.2 | 0.00 | 0.00 | 0.00 | 53 | 1013.1 |
| 20260504020020 | 6 | 360 | 0.0 | 4.8 | 0.00 | 0.00 | 0.00 | 52 | 1013.0 |
| 20260504015518 | 7 | 360 | 1.6 | 6.4 | 0.00 | 0.00 | 0.00 | 52 | 1013.0 |
| 20260504015018 | 7 | 360 | 1.6 | 6.4 | 0.00 | 0.00 | 0.00 | 50 | 1012.9 |
| 20260504014524 | 7 | 360 | 3.2 | 6.4 | 0.00 | 0.00 | 0.00 | 50 | 1012.8 |
| 20260504014016 | 7 | 360 | 1.6 | 4.8 | 0.00 | 0.00 | 0.00 | 49 | 1012.8 |
| 20260504013516 | 7 | 360 | 1.6 | 4.8 | 0.00 | 0.00 | 0.00 | 48 | 1012.7 |
| 20260504013016 | 8 | 360 | 1.6 | 4.8 | 0.00 | 0.00 | 0.00 | 46 | 1012.7 |
| 20260504012516 | 8 | 360 | 1.6 | 6.4 | 0.00 | 0.00 | 0.00 | 44 | 1012.7 |
| 20260504012015 | 8 | 360 | 1.6 | 6.4 | 0.00 | 0.00 | 0.00 | 42 | 1012.7 |
| 20260504011515 | 8 | 360 | 1.6 | 6.4 | 0.00 | 0.00 | 0.00 | 41 | 1012.7 |
| 20260504011015 | 9 | 360 | 1.6 | 6.4 | 0.00 | 0.00 | 0.00 | 41 | 1012.7 |
| 20260504010515 | 9 | 360 | 1.6 | 6.4 | 0.00 | 0.00 | 0.00 | 40 | 1012.5 |
| 20260504010015 | 10 | 360 | 1.6 | 6.4 | 0.00 | 0.00 | 0.00 | 39 | 1012.3 |
| 20260504005515 | 10 | 360 | 0.0 | 6.4 | 0.00 | 0.00 | 0.00 | 38 | 1012.4 |
| 20260504005015 | 10 | 360 | 3.2 | 6.4 | 0.00 | 0.00 | 0.00 | 37 | 1012.3 |
| 20260504004519 | 10 | 360 | 1.6 | 6.4 | 0.00 | 0.00 | 0.00 | 36 | 1012.3 |
| 20260504004014 | 10 | 360 | 1.6 | 4.8 | 0.00 | 0.00 | 0.00 | 35 | 1012.1 |
| 20260504003514 | 10 | 360 | 1.6 | 4.8 | 0.00 | 0.00 | 0.00 | 34 | 1012.2 |
| 20260504003013 | 11 | 360 | 1.6 | 6.4 | 0.00 | 0.00 | 0.00 | 34 | 1012.1 |
| 20260504002514 | 11 | 360 | 3.2 | 6.4 | 0.00 | 0.00 | 0.00 | 33 | 1011.9 |
| 20260504002013 | 11 | 360 | 4.8 | 9.7 | 0.00 | 0.00 | 0.00 | 32 | 1011.9 |
| 20260504001513 | 11 | 360 | 3.2 | 9.7 | 0.00 | 0.00 | 0.00 | 32 | 1011.8 |
| 20260504001013 | 11 | 360 | 3.2 | 12.9 | 0.00 | 0.00 | 0.00 | 32 | 1011.7 |
| 20260504000513 | 11 | 360 | 4.8 | 12.9 | 0.00 | 0.00 | 0.00 | 31 | 1011.6 |
| 20260504000013 | 11 | 360 | 3.2 | 14.5 | 0.00 | 0.00 | 0.00 | 31 | 1011.5 |
| 20260503235515 | 11 | 360 | 4.8 | 16.1 | 0.00 | 0.00 | 0.00 | 31 | 1011.5 |
| 20260503235014 | 11 | 360 | 3.2 | 22.5 | 0.00 | 0.00 | 0.00 | 30 | 1011.4 |
| 20260503234512 | 11 | 360 | 11.3 | 22.5 | 0.00 | 0.00 | 0.00 | 30 | 1011.4 |
| 20260503234012 | 12 | 360 | 9.7 | 22.5 | 0.00 | 0.00 | 0.00 | 30 | 1011.3 |
| 20260503233512 | 12 | 360 | 9.7 | 25.7 | 0.00 | 0.00 | 0.00 | 30 | 1011.2 |
| 20260503233016 | 12 | 360 | 8.0 | 25.7 | 0.00 | 0.00 | 0.00 | 29 | 1011.3 |
| 20260503232511 | 12 | 360 | 8.0 | 25.7 | 0.00 | 0.00 | 0.00 | 29 | 1011.2 |
| 20260503232011 | 12 | 360 | 9.7 | 25.7 | 0.00 | 0.00 | 0.00 | 29 | 1011.1 |
| 20260503231511 | 12 | 360 | 4.8 | 24.1 | 0.00 | 0.00 | 0.00 | 29 | 1011.1 |
| 20260503231011 | 12 | 360 | 8.0 | 27.4 | 0.00 | 0.00 | 0.00 | 29 | 1011.1 |
| 20260503230512 | 12 | 360 | 8.0 | 27.4 | 0.00 | 0.00 | 0.00 | 29 | 1011.1 |
| 20260503230011 | 12 | 360 | 12.9 | 25.7 | 0.00 | 0.00 | 0.00 | 29 | 1011.0 |
| 20260503225510 | 12 | 360 | 11.3 | 30.6 | 0.00 | 0.00 | 0.00 | 29 | 1011.1 |
| 20260503225113 | 12 | 360 | 11.3 | 33.8 | 0.00 | 0.00 | 0.00 | 28 | 1011.1 |
| 20260503224509 | 12 | 360 | 8.0 | 33.8 | 0.00 | 0.00 | 0.00 | 29 | 1011.0 |
| 20260503224009 | 12 | 360 | 12.9 | 24.1 | 0.00 | 0.00 | 0.00 | 29 | 1011.0 |
| 20260503223511 | 12 | 360 | 8.0 | 25.7 | 0.00 | 0.00 | 0.00 | 29 | 1010.9 |
| 20260503223009 | 12 | 360 | 11.3 | 27.4 | 0.00 | 0.00 | 0.00 | 29 | 1010.9 |
| 20260503222509 | 12 | 360 | 12.9 | 29.0 | 0.00 | 0.00 | 0.00 | 29 | 1011.0 |
| 20260503222008 | 12 | 360 | 12.9 | 29.0 | 0.00 | 0.00 | 0.00 | 29 | 1010.9 |
| 20260503221508 | 12 | 360 | 4.8 | 22.5 | 0.00 | 0.00 | 0.00 | 31 | 1010.9 |
| 20260503221007 | 12 | 360 | 11.3 | 29.0 | 0.00 | 0.00 | 0.00 | 31 | 1011.0 |
| 20260503220507 | 12 | 360 | 14.5 | 29.0 | 0.00 | 0.00 | 0.00 | 31 | 1011.1 |
| 20260503220007 | 12 | 360 | 11.3 | 29.0 | 0.00 | 0.00 | 0.00 | 31 | 1010.9 |
| 20260503215507 | 12 | 360 | 8.0 | 27.4 | 0.00 | 0.00 | 0.00 | 33 | 1011.1 |
| 20260503215104 | 12 | 360 | 8.0 | 30.6 | 0.00 | 0.00 | 0.00 | 32 | 1011.0 |
| 20260503214507 | 12 | 360 | 17.7 | 30.6 | 0.00 | 0.00 | 0.00 | 32 | 1011.0 |
| 20260503214002 | 12 | 360 | 16.1 | 29.0 | 0.00 | 0.00 | 0.00 | 32 | 1011.1 |
| 20260503213501 | 12 | 360 | 3.2 | 27.4 | 0.00 | 0.00 | 0.00 | 34 | 1011.0 |
| 20260503213002 | 12 | 360 | 12.9 | 29.0 | 0.00 | 0.00 | 0.00 | 34 | 1011.1 |
| 20260503212502 | 12 | 360 | 16.1 | 32.2 | 0.00 | 0.00 | 0.00 | 34 | 1011.1 |
| 20260503212001 | 12 | 360 | 11.3 | 33.8 | 0.00 | 0.00 | 0.00 | 35 | 1011.1 |
| 20260503211500 | 12 | 360 | 12.9 | 33.8 | 0.00 | 0.00 | 0.00 | 34 | 1011.1 |
| 20260503211001 | 12 | 360 | 11.3 | 29.0 | 0.00 | 0.00 | 0.00 | 34 | 1010.9 |
| 20260503210600 | 12 | 360 | 12.9 | 29.0 | 0.00 | 0.00 | 0.00 | 34 | 1011.1 |
| 20260503210104 | 12 | 360 | 12.9 | 30.6 | 0.00 | 0.00 | 0.00 | 35 | 1011.2 |
| 20260503205600 | 12 | 360 | 12.9 | 30.6 | 0.00 | 0.00 | 0.00 | 35 | 1011.1 |
| 20260503205058 | 12 | 360 | 9.7 | 22.5 | 0.00 | 0.00 | 0.00 | 35 | 1011.0 |
| 20260503204558 | 11 | 360 | 8.0 | 25.7 | 0.00 | 0.00 | 0.00 | 36 | 1011.0 |
| 20260503204058 | 11 | 360 | 11.3 | 32.2 | 0.00 | 0.00 | 0.00 | 36 | 1011.0 |
| 20260503203556 | 11 | 360 | 14.5 | 33.8 | 0.00 | 0.00 | 0.00 | 36 | 1011.2 |
| 20260503203058 | 11 | 360 | 14.5 | 33.8 | 0.00 | 0.00 | 0.00 | 36 | 1011.0 |
| 20260503202556 | 11 | 360 | 16.1 | 29.0 | 0.00 | 0.00 | 0.00 | 36 | 1011.1 |
| 20260503202056 | 11 | 360 | 6.4 | 27.4 | 0.00 | 0.00 | 0.00 | 37 | 1011.0 |
| 20260503201556 | 11 | 360 | 4.8 | 27.4 | 0.00 | 0.00 | 0.00 | 38 | 1011.0 |
| 20260503201056 | 11 | 360 | 12.9 | 32.2 | 0.00 | 0.00 | 0.00 | 37 | 1011.1 |
| 20260503200555 | 11 | 360 | 12.9 | 32.2 | 0.00 | 0.00 | 0.00 | 37 | 1011.1 |
| 20260503200057 | 11 | 360 | 8.0 | 35.4 | 0.00 | 0.00 | 0.00 | 37 | 1011.1 |
| 20260503195558 | 11 | 360 | 17.7 | 35.4 | 0.00 | 0.00 | 0.00 | 37 | 1011.2 |
| 20260503195055 | 11 | 360 | 14.5 | 29.0 | 0.00 | 0.00 | 0.00 | 36 | 1011.2 |
| 20260503194600 | 11 | 360 | 12.9 | 25.7 | 0.00 | 0.00 | 0.00 | 36 | 1011.1 |
| 20260503194057 | 11 | 360 | 12.9 | 25.7 | 0.00 | 0.00 | 0.00 | 36 | 1011.1 |
| 20260503193554 | 11 | 360 | 9.7 | 30.6 | 0.00 | 0.00 | 0.00 | 37 | 1011.2 |
| 20260503193054 | 11 | 360 | 16.1 | 37.0 | 0.00 | 0.00 | 0.00 | 36 | 1011.2 |
| 20260503192553 | 10 | 360 | 14.5 | 37.0 | 0.00 | 0.00 | 0.00 | 37 | 1011.2 |
| 20260503192054 | 11 | 360 | 17.7 | 32.2 | 0.00 | 0.00 | 0.00 | 36 | 1011.1 |
| 20260503191554 | 11 | 360 | 11.3 | 24.1 | 0.00 | 0.00 | 0.00 | 36 | 1011.1 |
| 20260503191054 | 11 | 360 | 4.8 | 24.1 | 0.00 | 0.00 | 0.00 | 37 | 1011.0 |
| 20260503190556 | 11 | 360 | 11.3 | 29.0 | 0.00 | 0.00 | 0.00 | 36 | 1011.0 |
| 20260503190052 | 10 | 360 | 9.7 | 29.0 | 0.00 | 0.00 | 0.00 | 37 | 1011.0 |
| 20260503185552 | 10 | 360 | 14.5 | 29.0 | 0.00 | 0.00 | 0.00 | 36 | 1011.2 |
| 20260503185056 | 10 | 360 | 14.5 | 25.7 | 0.00 | 0.00 | 0.00 | 37 | 1011.2 |
| 20260503184557 | 10 | 360 | 6.4 | 22.5 | 0.00 | 0.00 | 0.00 | 38 | 1011.1 |
| 20260503184053 | 10 | 360 | 11.3 | 27.4 | 0.00 | 0.00 | 0.00 | 37 | 1011.1 |
| 20260503183551 | 10 | 360 | 12.9 | 27.4 | 0.00 | 0.00 | 0.00 | 38 | 1011.2 |
| 20260503183051 | 10 | 360 | 14.5 | 32.2 | 0.00 | 0.00 | 0.00 | 38 | 1011.2 |
| 20260503182550 | 10 | 360 | 11.3 | 38.6 | 0.00 | 0.00 | 0.00 | 38 | 1011.3 |
| 20260503182050 | 10 | 360 | 12.9 | 38.6 | 0.00 | 0.00 | 0.00 | 38 | 1011.1 |
| 20260503181551 | 10 | 360 | 20.9 | 35.4 | 0.00 | 0.00 | 0.00 | 38 | 1011.1 |
| 20260503181050 | 10 | 360 | 11.3 | 29.0 | 0.00 | 0.00 | 0.00 | 37 | 1011.1 |
| 20260503180550 | 11 | 360 | 9.7 | 35.4 | 0.00 | 0.00 | 0.00 | 37 | 1011.0 |
| 20260503180058 | 10 | 360 | 9.7 | 35.4 | 0.00 | 0.00 | 0.00 | 36 | 1010.9 |
| 20260503175549 | 11 | 360 | 14.5 | 35.4 | 0.00 | 0.00 | 0.00 | 36 | 1011.0 |
| 20260503175048 | 11 | 360 | 11.3 | 35.4 | 0.00 | 0.00 | 0.00 | 37 | 1011.0 |
| 20260503174548 | 10 | 360 | 14.5 | 25.7 | 0.00 | 0.00 | 0.00 | 38 | 1011.0 |
| 20260503174048 | 10 | 360 | 11.3 | 24.1 | 0.00 | 0.00 | 0.00 | 39 | 1011.0 |
| 20260503173548 | 10 | 360 | 9.7 | 25.7 | 0.00 | 0.00 | 0.00 | 39 | 1011.1 |
| 20260503173048 | 10 | 360 | 14.5 | 30.6 | 0.00 | 0.00 | 0.00 | 40 | 1011.2 |
| 20260503172547 | 10 | 360 | 12.9 | 30.6 | 0.00 | 0.00 | 0.00 | 41 | 1011.2 |
| 20260503172048 | 9 | 360 | 14.5 | 33.8 | 0.00 | 0.00 | 0.00 | 41 | 1011.3 |
| 20260503171550 | 9 | 360 | 6.4 | 33.8 | 0.00 | 0.00 | 0.00 | 42 | 1011.4 |
| 20260503171047 | 9 | 360 | 11.3 | 30.6 | 0.00 | 0.00 | 0.00 | 43 | 1011.4 |
| 20260503170547 | 9 | 360 | 16.1 | 30.6 | 0.00 | 0.00 | 0.00 | 42 | 1011.4 |